Change the Weather History Date:

Monday, November 11, 2013

  Actual Average (KAQP) Record (KAQP)
Temperature  
Mean Temperature 19 °F -  
Max Temperature 28 °F 39 °F 69 °F (2005)
Min Temperature 10 °F 23 °F 6 °F (2006)
Degree Days  
Heating Degree Days 46    
Moisture  
Dew Point 10 °F    
Average Humidity 66    
Maximum Humidity 85    
Minimum Humidity 50    
Precipitation  
Precipitation 0.00 in - - ()
Sea Level Pressure  
Sea Level Pressure 30.55 in    
Wind  
Wind Speed 19 mph (NNW)    
Max Wind Speed 25 mph    
Max Gust Speed 33 mph    
Visibility 10 miles    
Events Snow    
Averages and records for this station are not official NWS values.
T = Trace of Precipitation, MM = Missing Value Source: NWS Daily Summary

Daily Weather History Graph

Daily Weather History Graph

Search for Another Location

Airport or City:

Trip Planner

Search our weather history database for the weather conditions in past years. The results will help you decide how hot, cold, wet, or windy it might be!

Date:

Astronomy

Nov. 11, 2013 Rise Set
Actual Time 7:17 AM CST 4:59 PM CST
Civil Twilight 6:45 AM CST 5:31 PM CST
Nautical Twilight 6:10 AM CST 6:06 PM CST
Astronomical Twilight 5:35 AM CST 6:40 PM CST
Moon 1:55 PM CST (11/11) 12:47 AM CST (11/11)
Length of Visible Light 10h 45m
Length of Day
9h 42m
Waxing Gibbous, 66% of the Moon is Illuminated
Nov 11
Waxing Gibbous
Nov 17
Full
Nov 25
Last Quarter
Dec 2
New
Dec 9
First Quarter

Hourly Weather History & Observations

Time (CST) Temp. Windchill Dew Point Humidity Pressure Visibility Wind Dir Wind Speed Gust Speed Precip Events Conditions
12:13 AM 28.4 °F 14.1 °F 21.2 °F 74% 30.24 in 10.0 mi North 24.2 mph 31.1 mph N/A   Overcast
12:34 AM 28.4 °F 14.4 °F 19.4 °F 69% 30.25 in 10.0 mi NNW 23.0 mph 28.8 mph N/A Snow Light Snow
12:53 AM 26.6 °F 12.7 °F 19.4 °F 74% 30.27 in 10.0 mi North 20.7 mph 27.6 mph N/A   Scattered Clouds
1:14 AM 26.6 °F 11.4 °F 17.6 °F 69% 30.27 in 10.0 mi North 25.3 mph 32.2 mph N/A   Overcast
1:34 AM 26.6 °F 12.0 °F 15.8 °F 64% 30.29 in 10.0 mi North 23.0 mph 29.9 mph N/A   Overcast
1:53 AM 24.8 °F 10.7 °F 15.8 °F 69% 30.31 in 10.0 mi North 19.6 mph - N/A Snow Light Snow
2:14 AM 24.8 °F 10.7 °F 14.0 °F 64% 30.30 in 10.0 mi North 19.6 mph 29.9 mph N/A Snow Light Snow
2:33 AM 24.8 °F 10.0 °F 15.8 °F 69% 30.31 in 10.0 mi North 21.9 mph 27.6 mph N/A Snow Light Snow
2:54 AM 24.8 °F 11.1 °F 15.8 °F 69% 30.31 in 10.0 mi North 18.4 mph 27.6 mph N/A Snow Light Snow
3:14 AM 23.0 °F 8.0 °F 10.4 °F 59% 30.33 in 10.0 mi North 20.7 mph 33.4 mph N/A   Mostly Cloudy
3:33 AM 23.0 °F 7.6 °F 10.4 °F 59% 30.34 in 10.0 mi North 21.9 mph 27.6 mph N/A   Overcast
3:54 AM 23.0 °F 8.3 °F 10.4 °F 59% 30.36 in 10.0 mi North 19.6 mph 26.5 mph N/A   Overcast
4:14 AM 23.0 °F 8.0 °F 12.2 °F 63% 30.36 in 10.0 mi North 20.7 mph 26.5 mph N/A   Overcast
4:33 AM 21.2 °F 5.6 °F 10.4 °F 63% 30.36 in 10.0 mi North 20.7 mph 25.3 mph N/A   Overcast
4:54 AM 21.2 °F 4.2 °F 10.4 °F 63% 30.38 in 10.0 mi North 25.3 mph 31.1 mph N/A   Mostly Cloudy
5:13 AM 21.2 °F 5.6 °F 8.6 °F 58% 30.39 in 10.0 mi North 20.7 mph 27.6 mph N/A   Mostly Cloudy
5:34 AM 21.2 °F 5.6 °F 10.4 °F 63% 30.40 in 10.0 mi North 20.7 mph 27.6 mph N/A   Scattered Clouds
5:54 AM 21.2 °F 6.4 °F 10.4 °F 63% 30.41 in 10.0 mi North 18.4 mph 28.8 mph N/A   Scattered Clouds
6:13 AM 21.2 °F 5.6 °F 12.2 °F 68% 30.42 in 10.0 mi North 20.7 mph - N/A   Scattered Clouds
6:33 AM 21.2 °F 6.4 °F 12.2 °F 68% 30.43 in 10.0 mi North 18.4 mph 26.5 mph N/A   Scattered Clouds
6:54 AM 21.2 °F 5.6 °F 12.2 °F 68% 30.45 in 10.0 mi North 20.7 mph 26.5 mph N/A   Clear
7:13 AM 19.4 °F 3.2 °F 10.4 °F 68% 30.46 in 10.0 mi North 20.7 mph 28.8 mph N/A   Clear
7:33 AM 19.4 °F 3.2 °F 8.6 °F 63% 30.48 in 10.0 mi North 20.7 mph 27.6 mph N/A   Clear
7:54 AM 19.4 °F 2.1 °F 8.6 °F 63% 30.48 in 10.0 mi North 24.2 mph 27.6 mph N/A   Clear
8:13 AM 19.4 °F 3.6 °F 8.6 °F 63% 30.50 in 10.0 mi North 19.6 mph 26.5 mph N/A   Clear
8:34 AM 19.4 °F 3.2 °F 8.6 °F 63% 30.51 in 10.0 mi North 20.7 mph 27.6 mph N/A   Clear
8:53 AM 19.4 °F 3.2 °F 10.4 °F 68% 30.53 in 10.0 mi North 20.7 mph 25.3 mph N/A   Clear
9:13 AM 19.4 °F 2.5 °F 10.4 °F 68% 30.53 in 10.0 mi North 23.0 mph 26.5 mph N/A   Clear
9:34 AM 19.4 °F 2.1 °F 10.4 °F 68% 30.54 in 10.0 mi North 24.2 mph 29.9 mph N/A   Clear
9:53 AM 19.4 °F 2.8 °F 8.6 °F 63% 30.55 in 10.0 mi North 21.9 mph 27.6 mph N/A   Clear
10:13 AM 19.4 °F 3.6 °F 8.6 °F 63% 30.55 in 10.0 mi North 19.6 mph 25.3 mph N/A   Clear
10:34 AM 21.2 °F 5.2 °F 8.6 °F 58% 30.56 in 10.0 mi North 21.9 mph 31.1 mph N/A   Clear
10:53 AM 21.2 °F 5.6 °F 10.4 °F 63% 30.57 in 10.0 mi North 20.7 mph 29.9 mph N/A   Clear
11:14 AM 21.2 °F 6.4 °F 8.6 °F 58% 30.58 in 10.0 mi North 18.4 mph 27.6 mph N/A   Clear
11:34 AM 21.2 °F 6.8 °F 8.6 °F 58% 30.58 in 10.0 mi North 17.3 mph 26.5 mph N/A   Clear
11:53 AM 21.2 °F 6.8 °F 10.4 °F 63% 30.58 in 10.0 mi North 17.3 mph 24.2 mph N/A   Clear
12:14 PM 24.8 °F 10.0 °F 10.4 °F 54% 30.58 in 10.0 mi North 21.9 mph 25.3 mph N/A   Scattered Clouds
12:33 PM 24.8 °F 11.1 °F 10.4 °F 54% 30.58 in 10.0 mi NNW 18.4 mph 26.5 mph N/A   Clear
12:54 PM 24.8 °F 10.7 °F 8.6 °F 50% 30.59 in 10.0 mi North 19.6 mph 26.5 mph N/A   Clear
1:13 PM 24.8 °F 10.7 °F 10.4 °F 54% 30.59 in 10.0 mi North 19.6 mph 26.5 mph N/A   Clear
1:33 PM 24.8 °F 10.0 °F 10.4 °F 54% 30.59 in 10.0 mi North 21.9 mph 26.5 mph N/A   Clear
1:54 PM 24.8 °F 10.0 °F 10.4 °F 54% 30.60 in 10.0 mi North 21.9 mph 26.5 mph N/A   Clear
2:13 PM 24.8 °F 11.1 °F 8.6 °F 50% 30.61 in 10.0 mi NNW 18.4 mph 26.5 mph N/A   Clear
2:33 PM 24.8 °F 10.3 °F 8.6 °F 50% 30.61 in 10.0 mi NNW 20.7 mph 26.5 mph N/A   Clear
2:54 PM 24.8 °F 10.3 °F 8.6 °F 50% 30.62 in 10.0 mi North 20.7 mph 26.5 mph N/A   Clear
3:13 PM 24.8 °F 10.3 °F 8.6 °F 50% 30.62 in 10.0 mi NNW 20.7 mph - N/A   Clear
3:33 PM 23.0 °F 9.2 °F 10.4 °F 59% 30.63 in 10.0 mi NNW 17.3 mph 23.0 mph N/A   Clear
3:54 PM 23.0 °F 9.2 °F 10.4 °F 59% 30.63 in 10.0 mi NNW 17.3 mph 23.0 mph N/A   Clear
4:13 PM 21.2 °F 6.0 °F 10.4 °F 63% 30.64 in 10.0 mi NNW 19.6 mph - N/A   Clear
4:33 PM 21.2 °F 6.8 °F 8.6 °F 58% 30.65 in 10.0 mi NNW 17.3 mph - N/A   Clear
4:54 PM 19.4 °F 5.5 °F 8.6 °F 63% 30.66 in 10.0 mi NNW 15.0 mph - N/A   Clear
5:13 PM 19.4 °F 7.9 °F 10.4 °F 68% 30.66 in 10.0 mi NNW 10.4 mph - N/A   Clear
5:34 PM 19.4 °F 6.6 °F 8.6 °F 63% 30.67 in 10.0 mi NNW 12.7 mph 18.4 mph N/A   Clear
5:54 PM 19.4 °F 7.9 °F 8.6 °F 63% 30.67 in 10.0 mi North 10.4 mph - N/A   Clear
6:13 PM 17.6 °F 4.3 °F 8.6 °F 68% 30.68 in 10.0 mi North 12.7 mph - N/A   Clear
6:34 PM 17.6 °F 4.3 °F 10.4 °F 73% 30.69 in 10.0 mi North 12.7 mph - N/A   Clear
6:54 PM 17.6 °F 6.4 °F 10.4 °F 73% 30.70 in 10.0 mi NNW 9.2 mph - N/A   Clear
7:13 PM 17.6 °F 5.7 °F 10.4 °F 73% 30.71 in 10.0 mi NNW 10.4 mph - N/A   Clear
7:34 PM 17.6 °F 4.3 °F 10.4 °F 73% 30.72 in 10.0 mi NNW 12.7 mph - N/A   Clear
7:54 PM 15.8 °F 4.2 °F 8.6 °F 73% 30.73 in 10.0 mi North 9.2 mph - N/A   Clear
8:13 PM 15.8 °F 5.1 °F 8.6 °F 73% 30.74 in 10.0 mi NNW 8.1 mph - N/A   Clear
8:34 PM 15.8 °F 5.1 °F 8.6 °F 73% 30.73 in 10.0 mi NNW 8.1 mph - N/A   Clear
8:53 PM 15.8 °F 6.1 °F 8.6 °F 73% 30.73 in 10.0 mi NNW 6.9 mph - N/A   Clear
9:13 PM 14.0 °F 5.1 °F 8.6 °F 79% 30.74 in 10.0 mi NNW 5.8 mph - N/A   Clear
9:33 PM 10.4 °F 2.2 °F 6.8 °F 85% 30.75 in 10.0 mi West 4.6 mph - N/A   Clear
9:54 PM 10.4 °F 0.8 °F 6.8 °F 85% 30.76 in 10.0 mi WNW 5.8 mph - N/A   Clear
10:14 PM 12.2 °F 1.7 °F 6.8 °F 79% 30.76 in 10.0 mi WNW 6.9 mph - N/A   Clear
10:33 PM 10.4 °F -0.4 °F 5.0 °F 79% 30.76 in 10.0 mi WNW 6.9 mph - N/A   Clear
10:54 PM 10.4 °F -0.4 °F 6.8 °F 85% 30.77 in 10.0 mi WNW 6.9 mph - N/A   Clear
11:13 PM 10.4 °F -0.4 °F 6.8 °F 85% 30.78 in 10.0 mi WNW 6.9 mph - N/A   Clear
11:33 PM 10.4 °F -1.5 °F 6.8 °F 85% 30.78 in 10.0 mi WNW 8.1 mph - N/A   Clear
11:54 PM 10.4 °F 2.2 °F 6.8 °F 85% 30.78 in 10.0 mi WNW 4.6 mph - N/A   Clear